| time (UTC) | temp F | wind direction | speed knots | gust knots | rain 1hr in | rain 24hr in | rain mn in | humidity % | barometer mb |
| 20260506173652 | 56 | 0 | 2.6 | 8.7 | 0.00 | 0.02 | 0.02 | 76 | 1013.1 |
| 20260506172628 | 55 | 0 | 1.7 | 7.8 | 0.00 | 0.02 | 0.02 | 76 | 1013.1 |
| 20260506170519 | 55 | 55 | 1.7 | 7.8 | 0.00 | 0.02 | 0.02 | 78 | 1013.6 |
| 20260506165516 | 55 | 0 | 0.9 | 7.8 | 0.00 | 0.02 | 0.02 | 78 | 1013.9 |
| 20260506164454 | 54 | 0 | 1.7 | 8.7 | 0.00 | 0.02 | 0.02 | 79 | 1013.9 |
| 20260506162251 | 54 | 0 | 2.6 | 7.8 | 0.00 | 0.02 | 0.02 | 80 | 1013.3 |
| 20260506161305 | 54 | 0 | 0.9 | 7.0 | 0.00 | 0.02 | 0.02 | 80 | 1013.6 |
| 20260506160323 | 54 | 0 | 1.7 | 6.1 | 0.00 | 0.02 | 0.02 | 80 | 1013.9 |
| 20260506155342 | 54 | 0 | 0.9 | 9.6 | 0.00 | 0.02 | 0.02 | 81 | 1013.5 |
| 20260506153224 | 54 | 0 | 0.0 | 2.6 | 0.04 | 0.02 | 0.02 | 81 | 1014.2 |
| 20260506151029 | 54 | 0 | 0.0 | 2.6 | 0.00 | 0.00 | 0.00 | 79 | 1015.1 |
| 20260506145957 | 54 | 0 | 0.9 | 4.3 | 0.00 | 0.00 | 0.00 | 78 | 1014.4 |
| 20260506144956 | 53 | 0 | 0.9 | 7.0 | 0.00 | 0.00 | 0.00 | 78 | 1014.0 |
| 20260506144017 | 54 | 0 | 1.7 | 7.0 | 0.00 | 0.00 | 0.00 | 78 | 1013.1 |
| 20260506142954 | 54 | 0 | 0.9 | 6.1 | 0.00 | 0.00 | 0.00 | 77 | 1013.8 |
| 20260506141939 | 54 | 0 | 1.7 | 6.1 | 0.00 | 0.00 | 0.00 | 78 | 1013.9 |
| 20260506140942 | 53 | 0 | 1.7 | 7.0 | 0.00 | 0.00 | 0.00 | 77 | 1013.6 |
| 20260506135920 | 53 | 0 | 1.7 | 7.0 | 0.00 | 0.00 | 0.00 | 77 | 1013.9 |
| 20260506134940 | 53 | 0 | 2.6 | 8.7 | 0.00 | 0.00 | 0.00 | 77 | 1013.1 |
| 20260506133934 | 53 | 0 | 3.5 | 8.7 | 0.00 | 0.00 | 0.00 | 77 | 1012.7 |
| 20260506132926 | 53 | 0 | 1.7 | 6.1 | 0.00 | 0.00 | 0.00 | 77 | 1012.8 |
| 20260506131931 | 53 | 0 | 1.7 | 6.1 | 0.00 | 0.00 | 0.00 | 77 | 1012.8 |
| 20260506130909 | 53 | 0 | 2.6 | 7.8 | 0.00 | 0.00 | 0.00 | 77 | 1012.4 |
| 20260506125908 | 53 | 0 | 2.6 | 10.4 | 0.00 | 0.00 | 0.00 | 77 | 1012.5 |
| 20260506124914 | 53 | 0 | 1.7 | 10.4 | 0.00 | 0.00 | 0.00 | 78 | 1012.2 |
| 20260506123907 | 53 | 0 | 1.7 | 6.1 | 0.00 | 0.00 | 0.00 | 78 | 1012.3 |
| 20260506122924 | 53 | 0 | 1.7 | 4.3 | 0.00 | 0.00 | 0.00 | 78 | 1012.2 |
| 20260506121932 | 53 | 0 | 1.7 | 7.0 | 0.00 | 0.00 | 0.00 | 78 | 1012.1 |
| 20260506120908 | 53 | 0 | 1.7 | 8.7 | 0.00 | 0.00 | 0.00 | 78 | 1012.0 |
| 20260506115900 | 53 | 0 | 2.6 | 8.7 | 0.00 | 0.00 | 0.00 | 77 | 1012.0 |
| 20260506114849 | 53 | 0 | 2.6 | 7.8 | 0.00 | 0.00 | 0.00 | 76 | 1011.7 |
| 20260506113835 | 53 | 0 | 1.7 | 7.8 | 0.00 | 0.00 | 0.00 | 75 | 1011.6 |
| 20260506111712 | 54 | 0 | 2.6 | 9.6 | 0.00 | 0.00 | 0.00 | 72 | 1011.1 |
| 20260506110643 | 55 | 0 | 1.7 | 9.6 | 0.00 | 0.00 | 0.00 | 72 | 1011.0 |
| 20260506105652 | 55 | 46 | 2.6 | 8.7 | 0.00 | 0.00 | 0.00 | 71 | 1010.9 |
| 20260506104659 | 55 | 0 | 2.6 | 7.8 | 0.00 | 0.00 | 0.00 | 71 | 1010.5 |
| 20260506103715 | 56 | 331 | 0.9 | 9.6 | 0.00 | 0.00 | 0.00 | 70 | 1010.5 |
| 20260506102731 | 56 | 57 | 2.6 | 9.6 | 0.00 | 0.00 | 0.00 | 70 | 1010.4 |
| 20260506101701 | 56 | 24 | 1.7 | 6.1 | 0.00 | 0.00 | 0.00 | 70 | 1010.2 |
| 20260506100647 | 56 | 345 | 1.7 | 6.1 | 0.00 | 0.00 | 0.00 | 70 | 1010.1 |
| 20260506095635 | 56 | 320 | 1.7 | 5.2 | 0.00 | 0.00 | 0.00 | 70 | 1009.8 |
| 20260506094628 | 56 | 350 | 0.9 | 3.5 | 0.00 | 0.00 | 0.00 | 70 | 1009.7 |
| 20260506093556 | 57 | 9 | 0.9 | 7.0 | 0.00 | 0.00 | 0.00 | 70 | 1009.7 |
| 20260506092548 | 57 | 346 | 1.7 | 7.0 | 0.00 | 0.00 | 0.00 | 71 | 1009.4 |
| 20260506090509 | 57 | 5 | 0.9 | 5.2 | 0.00 | 0.00 | 0.00 | 71 | 1009.3 |
| 20260506084415 | 57 | 5 | 1.7 | 7.8 | 0.00 | 0.00 | 0.00 | 70 | 1009.0 |
| 20260506083344 | 57 | 319 | 1.7 | 7.8 | 0.00 | 0.00 | 0.00 | 71 | 1009.1 |
| 20260506082318 | 58 | 321 | 1.7 | 6.1 | 0.00 | 0.00 | 0.00 | 71 | 1009.2 |
| 20260506081330 | 58 | 24 | 1.7 | 5.2 | 0.00 | 0.00 | 0.00 | 72 | 1008.9 |
| 20260506080326 | 58 | 37 | 1.7 | 7.0 | 0.00 | 0.00 | 0.00 | 72 | 1008.9 |
| 20260506072127 | 58 | 49 | 1.7 | 5.2 | 0.00 | 0.00 | 0.00 | 72 | 1008.2 |
| 20260506071112 | 58 | 53 | 0.9 | 8.7 | 0.00 | 0.00 | 0.00 | 72 | 1008.3 |
| 20260506062052 | 59 | 49 | 1.7 | 7.0 | 0.00 | 0.00 | 0.00 | 71 | 1008.6 |
| 20260506061115 | 59 | 11 | 1.7 | 7.0 | 0.00 | 0.00 | 0.00 | 72 | 1008.4 |
| 20260506050911 | 60 | 341 | 1.7 | 7.0 | 0.00 | 0.00 | 0.00 | 74 | 1008.6 |
| 20260506044824 | 61 | 306 | 1.7 | 7.0 | 0.00 | 0.00 | 0.00 | 74 | 1008.3 |
| 20260506043839 | 61 | 332 | 1.7 | 6.1 | 0.00 | 0.00 | 0.00 | 74 | 1008.4 |
| 20260506042810 | 61 | 40 | 1.7 | 7.0 | 0.00 | 0.00 | 0.00 | 74 | 1008.5 |
| 20260506041816 | 62 | 26 | 2.6 | 7.0 | 0.00 | 0.00 | 0.00 | 73 | 1008.3 |
| 20260506040754 | 62 | 314 | 1.7 | 7.8 | 0.00 | 0.00 | 0.00 | 74 | 1008.2 |
| 20260506035747 | 62 | 346 | 1.7 | 7.8 | 0.00 | 0.00 | 0.00 | 74 | 1008.1 |
| 20260506034713 | 63 | 5 | 1.7 | 7.0 | 0.00 | 0.00 | 0.00 | 73 | 1007.8 |
| 20260506032524 | 64 | 0 | 1.7 | 7.0 | 0.00 | 0.00 | 0.00 | 73 | 1007.4 |
| 20260506031505 | 64 | 13 | 2.6 | 7.8 | 0.00 | 0.00 | 0.00 | 73 | 1007.2 |
| 20260506030441 | 65 | 19 | 1.7 | 8.7 | 0.00 | 0.00 | 0.00 | 72 | 1007.3 |
| 20260506025453 | 65 | 44 | 1.7 | 8.7 | 0.00 | 0.00 | 0.00 | 72 | 1007.1 |
| 20260506024502 | 65 | 339 | 1.7 | 7.0 | 0.00 | 0.00 | 0.00 | 71 | 1007.0 |
| 20260506022355 | 67 | 9 | 2.6 | 7.8 | 0.00 | 0.00 | 0.00 | 70 | 1006.3 |
| 20260506021325 | 68 | 9 | 0.9 | 7.0 | 0.00 | 0.00 | 0.00 | 71 | 1005.9 |
| 20260506020328 | 68 | 35 | 0.9 | 5.2 | 0.00 | 0.00 | 0.00 | 71 | 1005.7 |
| 20260506015330 | 68 | 5 | 0.9 | 4.3 | 0.00 | 0.00 | 0.00 | 70 | 1005.3 |
| 20260506014252 | 68 | 13 | 0.9 | 4.3 | 0.00 | 0.00 | 0.00 | 69 | 1005.2 |
| 20260506013238 | 68 | 30 | 0.9 | 3.5 | 0.00 | 0.00 | 0.00 | 68 | 1005.3 |
| 20260506012218 | 68 | 37 | 0.9 | 9.6 | 0.00 | 0.00 | 0.00 | 68 | 1005.0 |
| 20260506011202 | 69 | 34 | 2.6 | 9.6 | 0.00 | 0.00 | 0.00 | 67 | 1004.9 |
| 20260506010131 | 69 | 32 | 0.9 | 7.8 | 0.00 | 0.00 | 0.00 | 67 | 1004.4 |
| 20260506005109 | 70 | 344 | 2.6 | 8.7 | 0.00 | 0.00 | 0.00 | 66 | 1004.4 |
| 20260506004100 | 71 | 0 | 2.6 | 8.7 | 0.00 | 0.00 | 0.00 | 66 | 1003.8 |
| 20260506003119 | 72 | 13 | 1.7 | 7.8 | 0.00 | 0.00 | 0.00 | 65 | 1003.7 |
| 20260506002125 | 72 | 47 | 1.7 | 7.8 | 0.00 | 0.00 | 0.00 | 65 | 1003.5 |
| 20260506001056 | 73 | 323 | 2.6 | 7.0 | 0.00 | 0.00 | 0.00 | 64 | 1003.6 |
| 20260505235053 | 74 | 30 | 2.6 | 9.6 | 0.00 | 0.00 | 0.00 | 63 | 1003.6 |
| 20260505232928 | 76 | 34 | 2.6 | 8.7 | 0.00 | 0.00 | 0.00 | 62 | 1003.4 |
| 20260505231927 | 77 | 27 | 2.6 | 8.7 | 0.00 | 0.00 | 0.00 | 61 | 1003.1 |
| 20260505230922 | 79 | 10 | 2.6 | 8.7 | 0.00 | 0.00 | 0.00 | 59 | 1003.1 |
| 20260505225928 | 80 | 332 | 1.7 | 7.0 | 0.00 | 0.00 | 0.00 | 60 | 1003.0 |
| 20260505224943 | 81 | 317 | 2.6 | 7.0 | 0.00 | 0.00 | 0.00 | 58 | 1002.8 |
| 20260505223924 | 82 | 302 | 1.7 | 7.0 | 0.00 | 0.00 | 0.00 | 58 | 1002.4 |
| 20260505222907 | 83 | 319 | 1.7 | 6.1 | 0.00 | 0.00 | 0.00 | 56 | 1002.5 |
| 20260505221924 | 84 | 351 | 1.7 | 6.1 | 0.00 | 0.00 | 0.00 | 53 | 1002.1 |
| 20260505220926 | 85 | 325 | 1.7 | 7.0 | 0.00 | 0.00 | 0.00 | 53 | 1002.2 |
| 20260505215936 | 85 | 327 | 1.7 | 7.0 | 0.00 | 0.00 | 0.00 | 54 | 1002.1 |
| 20260505214946 | 85 | 335 | 1.7 | 6.1 | 0.00 | 0.00 | 0.00 | 51 | 1001.9 |
| 20260505213941 | 86 | 0 | 2.6 | 6.1 | 0.00 | 0.00 | 0.00 | 47 | 1002.1 |
| 20260505211903 | 87 | 319 | 1.7 | 7.0 | 0.00 | 0.00 | 0.00 | 45 | 1001.9 |
| 20260505210838 | 87 | 285 | 1.7 | 6.1 | 0.00 | 0.00 | 0.00 | 49 | 1002.0 |
| 20260505205854 | 87 | 290 | 1.7 | 6.1 | 0.00 | 0.00 | 0.00 | 54 | 1002.1 |
| 20260505204847 | 88 | 240 | 1.7 | 5.2 | 0.00 | 0.00 | 0.00 | 55 | 1002.1 |
| 20260505203905 | 88 | 205 | 2.6 | 7.0 | 0.00 | 0.00 | 0.00 | 57 | 1002.1 |
| 20260505202911 | 88 | 244 | 1.7 | 8.7 | 0.00 | 0.00 | 0.00 | 59 | 1002.2 |
| 20260505201836 | 88 | 271 | 2.6 | 8.7 | 0.00 | 0.00 | 0.00 | 57 | 1002.4 |
| 20260505200836 | 87 | 236 | 2.6 | 8.7 | 0.00 | 0.00 | 0.00 | 55 | 1002.7 |
| 20260505195853 | 87 | 227 | 2.6 | 7.8 | 0.00 | 0.00 | 0.00 | 57 | 1002.5 |
| 20260505194838 | 87 | 216 | 2.6 | 10.4 | 0.00 | 0.00 | 0.00 | 59 | 1002.5 |
| 20260505193820 | 86 | 227 | 2.6 | 10.4 | 0.00 | 0.00 | 0.00 | 61 | 1002.7 |
| 20260505192833 | 86 | 217 | 2.6 | 8.7 | 0.00 | 0.00 | 0.00 | 61 | 1002.8 |
| 20260505191851 | 86 | 217 | 2.6 | 7.8 | 0.00 | 0.00 | 0.00 | 63 | 1002.5 |
| 20260505190837 | 85 | 194 | 3.5 | 7.8 | 0.00 | 0.00 | 0.00 | 61 | 1002.6 |
| 20260505185855 | 85 | 198 | 1.7 | 7.0 | 0.00 | 0.00 | 0.00 | 64 | 1002.6 |
| 20260505184819 | 84 | 172 | 2.6 | 9.6 | 0.00 | 0.00 | 0.00 | 66 | 1002.5 |
| 20260505183841 | 83 | 232 | 2.6 | 9.6 | 0.00 | 0.00 | 0.00 | 63 | 1002.6 |
| 20260505182901 | 84 | 227 | 3.5 | 8.7 | 0.00 | 0.00 | 0.00 | 63 | 1002.8 |
| 20260505181920 | 84 | 265 | 2.6 | 9.6 | 0.00 | 0.00 | 0.00 | 65 | 1002.6 |
| 20260505180938 | 84 | 263 | 2.6 | 9.6 | 0.00 | 0.00 | 0.00 | 66 | 1002.7 |
| 20260505175912 | 83 | 211 | 2.6 | 9.6 | 0.00 | 0.00 | 0.00 | 65 | 1002.8 |
| 20260505174911 | 83 | 224 | 2.6 | 7.8 | 0.00 | 0.00 | 0.00 | 66 | 1002.8 |